Home > Weather > Santa Ana > Past weeks

Flag for El Salvador Past Weather in Santa Ana, El Salvador — Yesterday and Last 2 Weeks

Now
91 °F

Scattered clouds.


Feels Like: 108 °F
Forecast: 67 / 93 °F
Wind: 10 mph from Southwest

Location: El Salvador Intl. Airport / Comalapa

Current Time: May 26, 2016 at 2:29:34 PM

Latest Report: May 26, 2016 at 12:50 PM


Visibility: N/A

Pressure: 29.83 "Hg (27.74 "Hg at 650m altitude)

Humidity: 67%

Dew Point: 79 °F

Location of Santa AnaLocation

Past Weather in Santa Ana — Graph

°F

Santa Ana Temperature Yesterday

Maximum temperature yesterday: 95 °F (at 10:50 AM)
Minimum temperature yesterday: 81 °F (at 2:50 AM)
Average temperature yesterday: 88 °F

High & Low Weather Summary for the Past Weeks

 TemperatureHumidityPressure
High97 °F (May 14, 11:50 AM)100% (May 13, 2:50 AM)29.95 "Hg (May 13, 2:50 AM)
Low75 °F (May 14, 2:50 AM)42% (May 14, 11:50 AM)29.74 "Hg (May 14, 2:50 PM)
Average85 °F76%29.84 "Hg
* Reported May 11 12:50 PM — May 26 12:50 PM, Santa Ana, Weather by CustomWeather, © 2016

Note: Actual official high and low records may vary slightly from our data, if they occured in-between our weather recording intervals... More about our weather records

Advertising

Santa Ana Weather History for the Previous 24 Hours

Scroll right to see more
 ConditionsComfort  
Time TempWeatherWind HumidityBarometerVisibility
12:50 PM
Thu, May 26
91 °FScattered clouds.10 mph67%29.83 "HgN/A
11:50 AM90 °FPassing clouds.8 mph71%29.86 "HgN/A
10:50 AM91 °FPassing clouds.8 mph67%29.89 "HgN/A
9:50 AM88 °FScattered clouds.7 mph75%29.89 "HgN/A
8:50 AM88 °FPassing clouds.5 mph70%29.89 "HgN/A
7:50 AM86 °FSunny.2 mph75%29.89 "Hg10 mi
6:50 AM82 °FPassing clouds.5 mph79%29.89 "HgN/A
5:50 AM79 °FSunny.3 mph89%29.89 "Hg10 mi
4:50 AM79 °FPassing clouds.3 mph74%29.86 "HgN/A
3:50 AM79 °FClear.2 mph89%29.86 "Hg10 mi
1:50 AM82 °FPassing clouds.7 mph84%29.83 "HgN/A
12:50 AM82 °FPassing clouds.6 mph84%29.86 "HgN/A
11:50 PM
Wed, May 25
82 °FPassing clouds.3 mph74%29.86 "HgN/A
10:50 PM84 °FPassing clouds.1 mph84%29.86 "HgN/A
9:50 PM82 °FPassing clouds.3 mph89%29.86 "HgN/A
8:50 PM84 °FClear.6 mph84%29.86 "Hg10 mi
7:50 PM86 °FClear.6 mph79%29.86 "Hg10 mi
6:50 PM88 °FPassing clouds.7 mph75%29.83 "HgN/A
4:50 PM91 °FPassing clouds.10 mph67%29.83 "HgN/A
3:50 PM91 °FPassing clouds.10 mph63%29.83 "HgN/A
2:50 PM93 °FPassing clouds.10 mph63%29.83 "HgN/A
Weather by CustomWeather, © 2016

See weather overviewHow to use our weather pages